WA2GUG Weather Reports


Display with metric or nautical units.
time (UTC)temp
F
wind
direction
speed
MPH
gust
MPH
rain 1hr
in
rain 24hr
in
rain mn
in
humidity
%
barometer
mb
20260503195918 69 82 0.0 1.0 0.00 0.00 0.00 99 1006.0
20260503195418 69 84 0.0 9.0 0.00 0.00 0.00 99 1006.0
20260503194918 69 72 0.0 9.0 0.00 0.00 0.00 99 1006.1
20260503194418 69 41 0.0 8.0 0.00 0.00 0.00 99 1006.2
20260503193917 70 3 0.0 8.0 0.00 0.00 0.00 99 1006.1
20260503193418 69 85 0.0 1.0 0.00 0.00 0.00 99 1006.2
20260503192918 67 80 0.0 1.0 0.00 0.00 0.00 99 1007.0
20260503192417 67 45 0.0 3.0 0.00 0.00 0.00 99 1006.2
20260503191418 71 129 1.0 6.0 0.00 0.00 0.00 99 1006.2
20260503190918 70 83 0.0 2.0 0.00 0.00 0.00 99 1006.2
20260503190417 69 38 0.0 6.0 0.00 0.00 0.00 99 1006.2
20260503185917 67 7 0.0 9.0 0.00 0.00 0.00 99 1007.0
20260503185417 64 42 0.0 9.0 0.00 0.00 0.00 99 1006.2
20260503184917 61 48 0.0 5.0 0.00 0.00 0.00 99 1007.0
20260503184417 61 92 0.0 5.0 0.00 0.00 0.00 99 1006.2
20260503183917 60 90 0.0 2.0 0.00 0.00 0.00 99 1007.0
20260503183418 58 45 0.0 1.0 0.00 0.00 0.00 99 1007.0
20260503182917 58 79 0.0 4.0 0.00 0.00 0.00 99 1007.0
20260503182417 60 48 0.0 5.0 0.00 0.00 0.00 99 1007.0
20260503181917 62 48 0.0 10.0 0.00 0.00 0.00 99 1007.0
20260503181417 63 74 1.0 10.0 0.00 0.00 0.00 99 1007.0
20260503180917 61 83 0.0 5.0 0.00 0.00 0.00 99 1007.0
20260503180417 57 5 0.0 7.0 0.00 0.00 0.00 99 1007.0
20260503175917 57 42 1.0 7.0 0.00 0.00 0.00 99 1007.0
20260503175417 57 47 0.0 5.0 0.00 0.00 0.00 99 1007.0
20260503174917 57 35 0.0 5.0 0.00 0.00 0.00 99 1007.0
20260503174417 58 83 0.0 4.0 0.00 0.00 0.00 99 1007.0
20260503173917 59 36 0.0 4.0 0.00 0.00 0.00 99 1007.0
20260503173418 57 35 0.0 4.0 0.00 0.00 0.00 99 1007.0
20260503172917 57 40 0.0 5.0 0.00 0.00 0.00 99 1007.0
20260503172417 57 45 0.0 5.0 0.00 0.00 0.00 99 1007.0
20260503171917 56 71 0.0 6.0 0.00 0.00 0.00 99 1007.0
20260503171417 55 43 1.0 6.0 0.00 0.00 0.00 99 1007.0
20260503170917 56 39 0.0 4.0 0.00 0.00 0.00 99 1007.0
20260503170417 57 309 0.0 4.0 0.00 0.00 0.00 99 1007.0
20260503150917 55 72 0.0 6.0 0.00 0.00 0.00 99 1007.1
20260503150417 57 45 0.0 4.0 0.00 0.00 0.00 99 1007.0
20260503131417 51 42 0.0 3.0 0.00 0.00 0.00 99 1008.0
20260503130417 50 46 0.0 10.0 0.00 0.00 0.00 99 1008.0
20260503110417 41 131 0.0 5.0 0.00 0.00 0.00 99 1007.1
20260503090417 37 88 0.0 0.0 0.00 0.00 0.00 99 1007.0
20260503081417 34 135 0.0 0.0 0.00 0.00 0.00 99 1008.0
20260503080917 34 91 0.0 0.0 0.00 0.00 0.00 99 1008.0
20260503080417 34 174 0.0 0.0 0.00 0.00 0.00 99 1008.0
20260503072917 35 72 0.0 0.0 0.00 0.00 0.00 99 1008.0
20260503072417 35 87 0.0 0.0 0.00 0.00 0.00 99 1008.0
20260503071917 35 136 0.0 0.0 0.00 0.00 0.00 99 1008.0
20260503071417 35 132 0.0 0.0 0.00 0.00 0.00 99 1008.0
20260503070917 35 93 0.0 3.0 0.00 0.00 0.00 99 1008.0
20260503070417 34 102 0.0 3.0 0.00 0.00 0.00 99 1008.0
20260503054917 30 22 0.0 0.0 0.00 0.00 0.00 99 1008.0
20260503054417 30 87 0.0 0.0 0.00 0.00 0.00 99 1008.0
20260503053917 29 179 0.0 0.0 0.00 0.00 0.00 99 1008.0
20260503053417 29 148 0.0 0.0 0.00 0.00 0.00 99 1008.0
20260503052917 29 148 0.0 0.0 0.00 0.00 0.00 99 1008.0
20260503052417 30 155 0.0 0.0 0.00 0.00 0.00 99 1008.0
20260503051917 30 151 0.0 0.0 0.00 0.00 0.00 99 1008.0
20260503051417 30 141 0.0 0.0 0.00 0.00 0.00 99 1008.0
20260503050917 31 139 0.0 0.0 0.00 0.00 0.00 99 1008.1
20260503050417 31 151 0.0 0.0 0.00 0.00 0.00 99 1009.0
20260503045916 31 175 0.0 0.0 0.00 0.00 0.00 99 1009.0
20260503045416 32 159 0.0 0.0 0.00 0.00 0.00 99 1009.0
20260503044917 32 172 0.0 0.0 0.00 0.00 0.00 99 1008.2
20260503044416 33 131 0.0 0.0 0.00 0.00 0.00 99 1009.0
20260503043916 33 144 0.0 1.0 0.00 0.00 0.00 99 1009.0
20260503043417 33 132 0.0 1.0 0.00 0.00 0.00 99 1009.0
20260503042916 33 111 0.0 0.0 0.00 0.00 0.00 99 1008.2
20260503042416 33 96 0.0 0.0 0.00 0.00 0.00 99 1009.0
20260503041916 33 118 0.0 0.0 0.00 0.00 0.00 99 1009.0
20260503041416 33 154 0.0 0.0 0.00 0.00 0.00 99 1009.0
20260503040916 33 213 0.0 0.0 0.00 0.00 0.00 99 1009.0
20260503040416 33 186 0.0 0.0 0.00 0.00 0.00 99 1009.0
20260503035916 33 139 0.0 0.0 0.00 0.00 0.00 99 1009.0
20260503035416 33 129 0.0 0.0 0.00 0.00 0.00 99 1009.0
20260503034916 33 124 0.0 0.0 0.00 0.00 0.00 99 1009.0
20260503034416 33 134 0.0 0.0 0.00 0.00 0.00 99 1009.0
20260503033916 33 147 0.0 0.0 0.00 0.00 0.00 99 1009.0
20260503033417 33 130 0.0 0.0 0.00 0.00 0.00 99 1009.0
20260503032917 33 131 0.0 0.0 0.00 0.00 0.00 99 1009.0
20260503032416 33 121 0.0 0.0 0.00 0.00 0.00 99 1009.0
20260503031916 33 169 0.0 0.0 0.00 0.00 0.00 99 1009.0
20260503031416 33 116 0.0 0.0 0.00 0.00 0.00 99 1009.0
20260503030916 33 137 0.0 0.0 0.00 0.00 0.00 99 1009.0
20260503030416 33 140 0.0 0.0 0.00 0.00 0.00 99 1009.0
20260503025916 34 152 0.0 0.0 0.00 0.00 0.00 99 1009.0
20260503025416 34 147 0.0 0.0 0.00 0.00 0.00 99 1009.0
20260503024916 34 167 0.0 0.0 0.00 0.00 0.00 99 1009.0
20260503024416 35 117 0.0 0.0 0.00 0.00 0.00 99 1009.0
20260503023916 35 128 0.0 0.0 0.00 0.00 0.00 99 1009.0
20260503023416 36 107 0.0 0.0 0.00 0.00 0.00 99 1009.0
20260503022916 36 150 0.0 0.0 0.00 0.00 0.00 99 1009.0
20260503022416 36 129 0.0 0.0 0.00 0.00 0.00 99 1009.0
20260503021916 36 129 0.0 0.0 0.00 0.00 0.00 99 1009.0
20260503021416 37 47 0.0 0.0 0.00 0.00 0.00 99 1009.0
20260503020916 37 106 0.0 0.0 0.00 0.00 0.00 99 1009.0
20260503020416 37 94 0.0 0.0 0.00 0.00 0.00 99 1009.0
20260503015916 37 111 0.0 0.0 0.00 0.00 0.00 99 1009.0
20260503015416 37 111 0.0 0.0 0.00 0.00 0.00 99 1009.0
20260503014916 37 136 0.0 0.0 0.00 0.00 0.00 99 1009.0
20260503014416 37 122 0.0 0.0 0.00 0.00 0.00 99 1009.0
20260503013916 37 135 0.0 0.0 0.00 0.00 0.00 99 1009.0
20260503013416 37 136 0.0 0.0 0.00 0.00 0.00 99 1009.0
20260503012916 38 138 0.0 0.0 0.00 0.00 0.00 99 1009.0
20260503012416 38 135 0.0 0.0 0.00 0.00 0.00 99 1009.0
20260503011916 38 135 0.0 0.0 0.00 0.00 0.00 99 1009.0
20260503011416 39 135 0.0 0.0 0.00 0.00 0.00 99 1009.0
20260503010916 39 140 0.0 0.0 0.00 0.00 0.00 99 1009.0
20260503010416 40 151 0.0 0.0 0.00 0.00 0.00 99 1009.0
20260503005916 40 157 0.0 0.0 0.00 0.00 0.00 99 1009.0
20260503005416 41 206 0.0 0.0 0.00 0.00 0.00 99 1009.0
20260503004916 41 130 0.0 0.0 0.00 0.00 0.00 99 1008.1
20260503004416 42 77 0.0 0.0 0.00 0.00 0.00 99 1008.1
20260503003916 42 64 0.0 0.0 0.00 0.00 0.00 99 1008.0
20260503003416 43 64 0.0 0.0 0.00 0.00 0.00 99 1008.0
20260503002916 43 67 0.0 0.0 0.00 0.00 0.00 99 1008.0
20260503002416 43 63 0.0 0.0 0.00 0.00 0.00 99 1008.0
20260503001916 44 71 0.0 0.0 0.00 0.00 0.00 99 1008.0
20260503001416 44 59 0.0 0.0 0.00 0.00 0.00 99 1008.0
20260503000916 45 61 0.0 0.0 0.00 0.00 0.00 99 1008.0
20260503000416 45 82 0.0 0.0 0.00 0.00 0.00 99 1008.0
20260502235916 46 86 0.0 0.0 0.00 0.00 0.00 99 1008.0
20260502235416 46 76 0.0 0.0 0.00 0.00 0.00 99 1008.0
20260502234916 47 51 0.0 0.0 0.00 0.00 0.00 99 1008.0
20260502234416 47 82 0.0 0.0 0.00 0.00 0.00 99 1008.0
20260502233916 48 70 0.0 0.0 0.00 0.00 0.00 99 1008.0
20260502233416 49 45 0.0 0.0 0.00 0.00 0.00 99 1008.0
20260502232916 50 80 0.0 1.0 0.00 0.00 0.00 99 1008.0
20260502232416 51 45 0.0 1.0 0.00 0.00 0.00 99 1008.0
20260502231916 52 52 0.0 0.0 0.00 0.00 0.00 99 1008.0
20260502231416 53 72 0.0 2.0 0.00 0.00 0.00 99 1008.0
20260502230916 55 77 0.0 3.0 0.00 0.00 0.00 99 1008.0
20260502230416 58 94 0.0 3.0 0.00 0.00 0.00 99 1008.0
20260502225916 59 49 0.0 3.0 0.00 0.00 0.00 99 1007.2
20260502225416 60 50 0.0 2.0 0.00 0.00 0.00 99 1008.0
20260502224916 61 37 0.0 5.0 0.00 0.00 0.00 99 1008.0
20260502224416 62 46 1.0 5.0 0.00 0.00 0.00 99 1008.0
20260502223916 62 42 0.0 2.0 0.00 0.00 0.00 99 1007.2
20260502223416 63 88 0.0 0.0 0.00 0.00 0.00 99 1008.0
20260502222916 63 41 0.0 0.0 0.00 0.00 0.00 99 1007.2
20260502222416 62 56 0.0 5.0 0.00 0.00 0.00 99 1008.0
20260502221916 61 45 0.0 5.0 0.00 0.00 0.00 99 1007.2
20260502221416 58 47 0.0 7.0 0.00 0.00 0.00 99 1007.2
20260502220916 55 48 1.0 7.0 0.00 0.00 0.00 99 1007.2
20260502220416 55 76 0.0 1.0 0.00 0.00 0.00 99 1007.2
20260502215916 56 42 0.0 1.0 0.00 0.00 0.00 99 1008.0
20260502215416 58 47 0.0 1.0 0.00 0.00 0.00 99 1008.0
20260502214916 62 46 0.0 3.0 0.00 0.00 0.00 99 1008.0
20260502214416 67 45 0.0 3.0 0.00 0.00 0.00 99 1007.2
20260502213916 69 41 0.0 3.0 0.00 0.00 0.00 99 1007.1
20260502213416 70 76 0.0 2.0 0.00 0.00 0.00 99 1007.1
20260502212916 70 45 0.0 3.0 0.00 0.00 0.00 99 1007.0
20260502212416 70 45 0.0 5.0 0.00 0.00 0.00 99 1007.0
20260502211916 70 140 0.0 5.0 0.00 0.00 0.00 99 1007.0
20260502211416 67 94 0.0 0.0 0.00 0.00 0.00 99 1007.0
20260502210916 64 21 0.0 0.0 0.00 0.00 0.00 99 1007.0
20260502210416 62 74 0.0 0.0 0.00 0.00 0.00 99 1007.0
20260502205916 64 34 0.0 3.0 0.00 0.00 0.00 99 1007.0
20260502205416 65 60 0.0 3.0 0.00 0.00 0.00 99 1007.0
20260502204916 67 46 0.0 3.0 0.00 0.00 0.00 99 1007.0
20260502204416 68 38 0.0 7.0 0.00 0.00 0.00 99 1007.0
20260502203916 68 46 0.0 7.0 0.00 0.00 0.00 99 1007.0
20260502203416 69 42 0.0 2.0 0.00 0.00 0.00 99 1007.0
20260502202916 71 43 0.0 2.0 0.00 0.00 0.00 99 1007.0
20260502202416 73 93 0.0 4.0 0.00 0.00 0.00 99 1007.0
20260502201916 74 40 0.0 4.0 0.00 0.00 0.00 99 1007.0
20260502201416 71 82 0.0 2.0 0.00 0.00 0.00 99 1007.0
20260502200916 68 42 0.0 0.0 0.00 0.00 0.00 99 1007.1
20260502200416 69 87 0.0 0.0 0.00 0.00 0.00 99 1007.1